Location: Codford Saint Peter
(51.1597°N, 2.0531°W)
Time: 13:43:35
(UTC+00:00)

H-2A R/B - Pass Details

Date: 18 September 2020
Orbit: 734 x 836 km, 98.2° (Epoch: 25 October)

Event Time Altitude Azimuth Distance (km) Brightness Sun altitude
Rises 19:14:35 0° 169° (S) 3,163 4.9 -10.1°
Reaches altitude 10° 19:16:50 10° 172° (S) 2,252 4.2 -10.4°
Maximum altitude 19:21:47 73° 257° (WSW) 794 2.2 -11.2°
Drops below altitude 10° 19:26:53 10° 342° (NNW) 2,321 5.0 -11.9°
Sets 19:29:15 0° 345° (NNW) 3,268 5.8 -12.3°
